This demonstration page uses our WeatherBlox Daily Observations layout. Learn more.

Left ArrowRight Arrow

Hourly Observations for May 16, 2021

Temp ( °F °C ) Dew Point ( °F °C ) Humidity (%) Winds ( mph kmh ) Pressure ( in mb ) Visibility ( mi km ) Precip ( " mm )
12:54 am 00:54 Clear 63 17.2 57 13.9 81 81 SSE 8 13 30.02 1017 10 16 N/A
1:54 am 01:54 Clear 62 16.7 56 13.3 80 80 SE 8 13 30.01 1016 10 16 N/A
2:54 am 02:54 Mostly Clear 60 15.6 56 13.3 86 86 SSE 7 11 30.01 1016 10 16 N/A
3:54 am 03:54 Partly Cloudy 60 15.6 56 13.3 86 86 SE 7 11 30.01 1016 10 16 N/A
4:54 am 04:54 Cloudy with Light Rain 60 15.6 56 13.3 86 86 SSE 9 15 30.02 1017 10 16 0.00 0.00
5:54 am 05:54 Mostly Cloudy 60 15.6 56 13.3 86 86 SSE 7 11 30.01 1016 10 16 0.00 0.00
6:54 am 06:54 Mostly Cloudy 60 15.6 55 12.8 84 84 SE 8 13 30.00 1016 10 16 0.00 0.00
7:54 am 07:54 Cloudy with Rain 59 15 56 13.3 90 90 SE 8 13 30.01 1016 4 6 0.03 0.76
8:02 am 08:02 Cloudy with Heavy Rain 59 15 56 13.3 90 90 SE 9 15 30.02 1017 2 3 0.03 0.76
8:18 am 08:18 Cloudy with Heavy Rain 59 15 56 13.3 90 90 SE 12 19 30.02 1017 2 3 0.13 3.30
8:31 am 08:31 Cloudy with Light Rain 59 15 56 13.3 90 90 SE 8 13 30.02 1017 3 5 0.19 4.83
8:54 am 08:54 Cloudy 59 15 56 13.3 90 90 SE 7 11 30.01 1016 8 13 0.20 5.08
9:08 am 09:08 Cloudy with Light Rain 59 15 56 13.3 90 90 ESE 7 11 30.02 1017 6 10 0.00 0.00
9:22 am 09:22 Cloudy with Light Rain 59 15 56 13.3 90 90 E 7 11 30.01 1016 5 8 0.01 0.25
9:54 am 09:54 Cloudy with Light Rain 59 15 56 13.3 90 90 E 7 11 29.99 1016 4 6 0.01 0.25
10:54 am 10:54 Cloudy with Light Rain 60 15.6 57 13.9 90 90 SE 6 9 30.03 1017 4 6 0.02 0.51
11:54 am 11:54 Cloudy with Light Rain 61 16.1 58 14.4 90 90 ESE 6 9 30.01 1016 4 6 0.03 0.76
12:54 pm 12:54 Cloudy 62 16.7 58 14.4 86 86 N N/A 30.00 1016 10 16 0.00 0.00
1:54 pm 13:54 Cloudy with Light Rain 63 17.2 58 14.4 84 84 E 7 11 29.99 1016 5 8 0.00 0.00
2:11 pm 14:11 Cloudy 63 17.2 58 14.4 84 84 E 8 13 29.98 1015 9 14 0.00 0.00
2:33 pm 14:33 Cloudy 63 17.2 58 14.4 84 84 ESE 7 11 29.98 1015 10 16 0.00 0.00
2:45 pm 14:45 Cloudy 63 17.2 59 15 87 87 E 7 11 29.98 1015 10 16 0.00 0.00
2:54 pm 14:54 Cloudy 63 17.2 59 15 87 87 E 8 13 29.98 1015 9 14 0.00 0.00
3:01 pm 15:01 Cloudy 63 17.2 58 14.4 84 84 ESE 8 13 29.98 1015 7 11 N/A
3:34 pm 15:34 Cloudy with Light Rain 63 17.2 58 14.4 84 84 E 9 15 29.98 1015 7 11 0.00 0.00
3:49 pm 15:49 Cloudy with Light Rain 63 17 59 15 88 88 E 8 13 29.98 1015 3 5 0.00 0.00
3:54 pm 15:54 Cloudy with Haze 63 17.2 58 14.4 84 84 E 7 11 29.98 1015 5 8 0.00 0.00
4:08 pm 16:08 Cloudy 63 17.2 59 15 87 87 ENE 10 17 29.98 1015 7 11 N/A
4:13 pm 16:13 Cloudy 63 17.2 59 15 87 87 E 10 17 29.98 1015 8 13 N/A
4:23 pm 16:23 Cloudy 64 17.8 59 15 84 84 E 12 19 29.97 1015 10 16 N/A
4:44 pm 16:44 Cloudy 64 17.8 58 14.4 81 81 E 8 13 29.97 1015 10 16 N/A
4:54 pm 16:54 Cloudy 63 17.2 58 14.4 84 84 E 10 17 29.98 1015 10 16 N/A
5:54 pm 17:54 Cloudy 63 17.2 57 13.9 81 81 E 12 19 29.97 1015 10 16 N/A
6:03 pm 18:03 Cloudy 63 17.2 57 13.9 81 81 E 10 17 29.97 1015 10 16 N/A
6:43 pm 18:43 Cloudy 63 17.2 57 13.9 81 81 E 10 17 29.97 1015 10 16 N/A
6:54 pm 18:54 Cloudy 63 17.2 56 13.3 78 78 E 9 15 29.98 1015 10 16 N/A
7:31 pm 19:31 Cloudy 62 16.7 56 13.3 80 80 E 10 17 29.97 1015 10 16 N/A
7:54 pm 19:54 Cloudy 62 16.7 56 13.3 80 80 E 8 13 29.98 1015 10 16 N/A
8:54 pm 20:54 Cloudy 61 16.1 56 13.3 84 84 E 12 19 29.97 1015 10 16 N/A
9:54 pm 21:54 Cloudy 60 15.6 56 13.3 86 86 E 9 15 29.98 1015 10 16 N/A
10:28 pm 22:28 Cloudy 60 15.6 56 13.3 86 86 ENE 8 13 29.99 1015 10 16 N/A
10:54 pm 22:54 Cloudy 60 15.6 56 13.3 86 86 E 9 15 29.98 1015 10 16 N/A
11:54 pm 23:54 Cloudy 59 15 56 13.3 90 90 ENE 10 17 29.97 1015 10 16 N/A

Powered by AerisWeather